RH
34 33 31 28 27 25 23 24 26 30 32 32 32 31 32 33 34 32 32 33 32 32 31 29 31 31 29 27 27 27 29 31 30 30 32 33 34 36 37 38 38 37 36 36 37 38 37 37 36 35 34 34 34 34 34 34 34 34 34 33 32 32 32 31 31 30 29 29 28 28 28 28 28 28 29 30 31 32 33 34 36 38 39 40 41 42
36 35 33 30 27 26 25 25 24 27 30 31 32 32 33 35 36 36 35 34 33 34 33 32 33 33 30 30 30 29 33 36 37 39 40 40 41 42 43 44 45 46 44 43 44 44 43 43 42 41 41 40 39 39 39 38 38 38 38 38 37 37 37 37 37 36 36 35 34 33 33 32 32 31 31 31 31 30 30 29 29 29 29 29 29 30
41 40 39 36 32 29 28 28 28 29 30 32 34 35 35 36 37 37 36 36 35 35 35 34 36 37 35 36 35 34 38 41 43 46 46 45 45 46 46 46 47 48 48 48 48 47 47 46 46 45 45 45 44 43 43 42 42 42 42 42 42 42 41 41 41 41 41 40 39 39 39 38 38 38 37 37 37 36 36 35 34 34 33 32 31 31
46 47 48 47 43 38 34 32 31 32 33 34 36 38 38 39 39 40 39 38 37 36 37 36 38 40 38 38 40 40 43 46 46 49 50 49 50 50 50 50 50 50 50 50 49 48 48 48 46 46 45 45 45 45 45 44 44 44 44 43 43 43 43 43 43 43 43 43 43 43 42 42 42 42 42 42 42 42 41 41 40 40 39 39 38 38
51 51 53 55 55 52 47 43 38 36 35 35 37 38 41 42 42 44 44 42 41 39 38 37 39 45 42 37 37 39 43 47 46 48 52 53 54 54 55 55 54 54 54 52 52 51 50 49 48 47 46 46 46 46 45 44 44 44 43 42 42 42 42 41 41 41 41 41 41 41 41 41 41 41 41 42 42 42 41 41 41 41 40 40 39 39
56 55 56 59 60 60 59 58 54 50 46 42 40 39 40 41 42 45 46 47 48 46 42 37 39 48 51 42 37 39 41 42 42 45 50 53 56 57 58 59 59 59 58 57 56 55 54 54 52 51 50 49 49 48 47 46 45 45 44 43 42 42 41 41 40 39 39 39 38 38 38 38 38 38 38 38 37 38 38 37 37 37 36 36 36 35
64 62 60 61 63 64 65 65 65 63 61 58 53 49 47 44 43 44 44 46 49 52 49 41 39 48 57 51 41 42 44 41 40 42 46 49 52 55 57 59 60 60 61 60 60 60 59 58 57 56 56 55 54 52 51 50 48 47 46 45 45 44 43 42 41 41 40 40 39 38 38 38 38 38 38 37 37 37 37 37 37 36 36 36 36 36
73 71 68 67 67 68 69 70 71 70 69 70 67 64 62 58 56 52 51 47 45 52 52 42 39 46 60 59 46 47 52 49 48 46 45 47 46 49 50 51 53 54 56 58 60 62 62 61 61 60 60 60 59 59 57 57 55 53 51 49 48 46 46 45 44 43 43 42 41 40 40 40 41 40 40 40 39 39 39 39 39 39 39 40 40 40
78 78 78 77 75 74 74 74 74 73 74 75 75 74 72 71 70 67 68 63 55 61 60 48 44 48 62 64 47 45 54 54 58 57 52 50 47 47 48 48 49 48 50 53 56 60 61 61 61 59 60 61 61 62 62 62 62 61 59 57 55 53 51 49 48 47 47 45 44 43 43 43 42 42 41 41 41 41 41 41 41 41 41 41 41 42
80 81 81 82 82 81 82 80 80 78 76 78 80 79 78 77 75 74 77 74 69 75 73 64 62 60 74 83 59 46 54 56 60 61 55 52 49 49 50 50 51 52 54 56 58 61 62 63 64 62 61 61 60 60 60 61 62 62 63 62 63 63 62 60 57 55 53 52 50 48 48 47 46 45 44 44 44 43 43 42 42 42 42 42 42 42
79 81 81 83 83 82 84 85 86 85 83 83 85 84 83 82 80 81 85 82 78 84 83 78 79 73 87 105 85 64 64 65 67 65 59 57 54 52 51 49 52 53 55 58 60 63 65 67 70 70 70 68 63 60 57 55 55 55 57 59 61 63 65 67 66 65 64 63 61 59 58 56 55 53 52 52 51 50 50 49 49 48 48 47 47 47
78 79 81 82 81 81 84 87 88 89 86 86 88 89 89 86 82 85 92 92 91 93 91 91 96 93 98 109 99 86 81 73 69 68 66 67 65 62 60 57 57 57 58 61 63 66 69 72 74 75 77 77 75 71 66 61 57 54 52 52 54 55 57 59 61 63 65 66 66 66 66 66 64 63 62 61 60 58 58 57 56 56 55 55 54 54
78 80 82 83 82 81 83 86 87 87 84 84 86 87 89 86 79 81 87 90 94 99 96 97 105 106 106 108 103 100 99 86 71 69 71 72 73 71 70 68 67 66 66 66 67 69 72 77 83 86 88 88 86 83 79 74 70 66 61 58 57 56 55 55 55 57 58 59 60 61 61 62 63 63 62 62 60 60 60 59 58 57 57 57 56 57
77 80 83 86 89 87 84 85 88 87 84 83 82 83 84 80 72 73 76 77 85 91 90 97 106 106 106 110 107 102 106 99 80 72 71 69 74 76 72 71 70 69 66 63 66 68 69 74 79 84 88 89 89 87 85 83 79 75 72 68 66 64 63 61 60 60 60 61 61 60 60 60 61 61 60 60 59 58 58 57 56 56 56 56 57 57
74 80 86 90 94 94 91 90 90 88 85 82 85 87 85 80 71 66 64 66 73 74 75 86 97 104 108 108 107 103 104 103 92 84 79 68 67 71 71 71 73 73 68 61 64 68 70 74 77 79 82 83 86 88 89 89 87 84 80 75 71 68 66 65 65 65 65 66 66 65 66 65 64 63 62 62 61 59 59 57 57 57 57 58 59 59
73 79 86 91 97 97 94 96 95 90 85 80 86 89 84 84 80 69 59 61 66 63 67 75 78 95 111 107 107 108 100 101 102 101 98 83 68 63 66 72 73 72 70 64 64 69 72 77 81 86 90 93 95 96 96 96 95 95 92 88 83 77 72 68 66 66 66 67 68 68 69 69 68 67 66 66 66 65 65 64 64 64 64 65 66 66
70 75 82 88 95 95 93 97 98 93 86 80 84 86 81 79 79 72 61 59 63 59 60 69 68 82 105 107 111 114 100 99 106 106 107 104 88 69 65 73 73 70 70 69 68 69 73 78 82 85 89 95 100 102 103 103 102 102 102 100 97 93 90 85 80 75 72 70 70 70 71 71 71 71 71 72 72 73 73 73 74 75 75 76 76 76
68 68 76 84 88 89 89 93 96 93 89 85 86 86 79 74 74 72 64 59 64 58 52 64 68 75 96 106 113 115 100 97 106 106 107 112 104 87 77 79 77 72 72 74 73 73 78 85 90 89 84 82 86 92 98 103 105 108 108 106 105 103 102 100 97 93 89 85 81 78 76 75 75 76 76 78 79 79 80 80 81 83 83 83 82 81
68 62 71 81 81 82 86 92 95 95 93 92 94 92 83 78 76 74 68 63 67 60 48 55 63 71 90 103 110 113 99 94 103 106 105 107 107 102 93 86 81 79 81 83 85 89 96 102 104 100 88 73 70 74 80 87 92 99 105 108 109 109 108 106 105 105 103 98 94 90 88 87 86 86 86 87 87 86 86 86 86 86 86 85 84 84
71 59 64 75 78 77 83 91 93 96 99 102 106 101 92 91 89 84 78 71 73 66 48 44 50 63 87 101 107 110 100 97 104 104 103 104 105 107 102 94 92 96 100 101 99 100 107 111 110 106 94 78 71 70 70 71 75 82 90 96 102 107 109 110 111 111 109 106 103 100 99 98 98 98 98 98 99 98 98 97 97 96 95 93 92 92
76 63 60 69 74 76 85 91 90 94 102 108 111 103 99 105 103 97 90 82 82 75 57 44 34 47 88 106 102 101 98 99 103 101 104 108 108 108 106 104 104 105 106 106 104 105 108 110 110 110 105 94 86 82 76 71 71 75 80 85 91 97 103 107 110 112 112 112 111 108 106 105 104 104 104 105 106 107 107 106 104 102 100 97 97 96
79 68 62 67 73 78 88 91 89 96 105 109 107 101 104 109 105 104 100 92 92 84 73 64 35 39 91 109 93 93 93 88 90 91 96 100 102 105 108 111 110 104 99 98 100 105 109 109 107 108 108 103 98 95 91 84 79 79 81 83 86 90 97 103 106 109 111 113 113 111 108 107 107 107 107 107 107 108 107 106 104 101 98 96 94 94
83 74 69 70 75 83 90 90 92 102 108 107 104 103 107 107 103 108 104 99 101 88 85 91 59 48 88 100 89 94 86 71 68 69 74 81 88 97 104 108 108 102 97 95 97 103 109 111 109 107 108 106 102 101 101 98 93 90 89 87 88 90 93 98 102 105 108 109 110 109 108 107 107 109 110 108 107 105 102 100 97 95 93 91 90 90
86 81 78 75 80 89 96 98 100 105 107 106 105 104 107 106 104 107 104 106 105 88 95 110 77 55 80 89 83 85 70 55 51 49 56 65 72 80 88 94 97 96 93 91 92 97 102 105 107 106 107 107 106 106 104 102 100 97 94 92 91 92 94 96 99 102 104 106 107 107 106 107 106 107 109 107 105 101 98 96 93 88 86 84 84 83
85 85 84 84 88 89 93 102 107 107 107 106 104 103 106 108 105 102 100 98 88 77 93 100 65 53 76 74 59 52 42 38 38 37 41 45 49 56 64 73 81 84 85 86 89 93 95 97 99 101 103 104 105 105 103 102 101 99 98 97 97 98 98 99 101 103 106 107 106 104 104 106 104 102 103 103 99 95 93 93 92 88 85 83 82 81
88 89 92 99 100 93 94 103 107 108 107 106 104 102 102 102 97 91 83 74 65 63 68 57 36 44 59 48 34 30 28 29 31 31 32 30 30 33 37 44 50 53 58 64 73 80 84 88 92 95 98 99 100 101 102 103 102 101 102 102 103 104 102 102 103 105 109 110 107 103 102 104 104 102 102 100 97 94 93 92 90 89 86 83 82 82
92 91 98 110 109 102 104 108 108 108 105 99 95 90 87 84 77 70 62 53 51 48 37 26 29 38 36 28 28 31 31 34 35 35 35 32 30 29 28 30 30 31 33 36 42 49 54 60 66 70 75 78 82 86 89 91 92 94 96 97 101 103 102 102 104 106 109 110 107 103 102 103 103 103 103 101 99 98 96 93 92 91 88 85 86 87
96 94 101 110 108 105 109 110 107 102 90 80 73 67 65 62 54 48 43 38 39 36 26 25 33 34 29 28 31 32 34 38 39 40 40 38 36 36 36 35 32 31 31 31 32 34 35 38 41 43 47 49 53 56 59 61 64 67 70 73 77 80 82 85 89 93 97 100 101 102 103 104 105 105 106 105 105 104 102 100 99 98 96 95 95 95
98 95 100 106 102 99 103 97 86 75 65 58 52 44 40 38 35 34 32 31 34 34 31 31 33 34 33 32 32 32 34 35 35 37 37 35 36 37 37 37 37 36 34 33 34 34 35 37 38 39 40 40 41 41 42 42 43 44 46 48 51 53 56 60 64 69 73 77 80 83 85 88 90 92 93 93 95 96 95 95 95 94 95 95 95 96
95 92 96 93 77 70 75 72 60 52 46 41 35 30 27 27 28 30 30 31 34 34 34 34 34 36 34 32 32 32 31 31 32 32 30 30 30 31 32 33 33 33 33 34 34 34 35 36 37 39 40 40 41 40 40 40 39 40 41 42 45 48 51 54 57 60 62 64 66 67 68 69 68 68 69 70 71 72 72 73 74 74 76 77 79 78
87 80 75 63 46 44 55 54 44 37 33 28 25 24 25 25 26 28 29 31 32 34 35 35 34 34 32 32 32 30 29 29 29 29 28 27 26 26 27 28 28 29 30 31 32 33 34 34 35 36 37 38 39 39 39 40 40 42 44 46 48 51 54 57 59 62 64 64 64 64 64 64 63 63 63 63 64 64 65 65 65 66 67 67 66 64
71 58 51 45 37 37 40 36 29 25 25 24 23 23 25 26 27 28 29 30 31 33 34 34 33 32 31 32 31 29 28 27 26 26 25 24 23 24 24 24 24 25 26 26 27 28 29 30 32 33 34 35 35 36 37 37 39 42 44 47 50 52 55 58 60 62 63 63 63 62 62 62 63 64 65 66 67 68 68 67 67 67 66 64 63 61
54 45 40 36 29 26 25 24 22 22 23 25 25 26 27 29 29 29 29 30 31 31 30 29 29 27 26 26 26 25 25 25 24 23 21 19 19 19 19 19 20 20 21 22 22 23 24 25 26 28 29 29 30 31 32 34 36 39 42 44 47 49 51 53 54 56 57 57 58 59 60 61 62 63 64 65 65 65 64 64 63 63 63 63 62 61
41 35 29 25 20 19 22 24 23 24 26 27 28 29 30 30 29 29 29 29 28 27 26 25 23 21 20 20 19 19 19 19 19 18 16 15 14 14 14 15 15 16 16 17 17 18 18 19 20 21 22 23 24 25 26 28 30 32 35 37 38 40 42 43 45 47 49 50 52 54 55 56 57 58 58 58 57 56 56 57 57 58 59 59 59 58
31 27 23 23 22 22 24 26 26 26 28 28 28 28 28 27 26 25 24 23 21 21 21 21 19 18 17 15 14 13 12 13 13 13 12 11 10 10 11 11 11 12 12 13 13 14 14 14 15 16 17 18 19 20 21 22 22 23 25 26 28 30 32 33 36 38 40 42 44 45 46 47 48 48 49 49 49 50 51 53 54 55 55 54 54 55
27 25 25 26 26 26 26 26 26 25 24 24 24 23 23 23 23 22 21 20 19 20 20 20 18 17 16 14 12 10 8 9 9 9 8 8 8 8 7 8 9 9 9 10 10 10 11 11 11 12 13 14 15 15 15 15 15 16 17 18 20 21 23 25 27 29 31 32 33 34 34 35 36 37 39 40 42 43 45 46 47 48 48 49 50 52
26 26 26 26 25 25 23 22 23 23 22 22 21 21 21 21 21 21 20 20 23 24 22 20 18 16 15 13 11 9 8 8 8 8 7 6 6 6 6 6 6 6 7 8 7 8 8 8 9 9 10 10 11 11 11 11 11 11 12 12 13 14 15 16 17 19 20 21 23 24 25 26 27 28 30 31 33 35 36 37 39 40 41 43 45 47
24 23 23 22 21 20 20 19 19 19 19 20 21 21 21 21 21 20 18 19 22 22 19 16 14 13 11 10 9 8 7 7 7 8 8 7 7 6 6 6 6 6 6 6 6 7 6 7 7 7 7 8 8 8 8 8 9 9 9 9 9 10 10 11 11 12 12 13 14 15 16 17 19 20 22 23 25 26 28 29 31 32 34 35 37 38
20 19 19 19 19 18 19 19 18 17 17 18 19 19 20 21 21 19 18 19 21 20 17 15 12 10 8 7 6 6 6 6 6 7 8 8 7 7 6 6 6 6 5 5 6 6 6 6 6 6 6 7 6 7 7 7 7 8 8 8 9 9 9 10 10 10 10 11 11 12 13 13 14 15 16 17 18 19 20 21 22 23 25 26 27 28
18 18 18 19 18 18 18 19 19 18 18 18 18 18 20 21 21 19 18 19 20 20 18 15 13 10 8 6 5 5 5 5 5 6 7 7 7 7 7 6 6 6 6 6 5 5 5 5 5 6 6 6 6 6 6 6 6 7 7 7 8 8 9 9 9 10 10 11 11 11 11 12 12 13 13 13 13 13 14 15 15 16 17 17 18 20
16 16 17 17 17 17 17 18 18 18 18 18 18 18 18 17 18 19 19 18 18 17 17 16 14 11 8 6 5 5 5 5 4 4 5 6 6 7 7 7 6 6 6 6 6 6 5 5 5 5 5 5 5 5 5 6 6 6 7 7 7 7 8 8 8 9 9 9 10 10 11 11 11 12 11 12 12 12 12 12 13 13 13 14 14 15
13 14 15 15 16 17 17 17 18 19 20 20 22 23 21 17 16 17 17 17 16 14 14 14 11 10 8 7 6 6 5 5 5 5 5 5 5 6 6 7 7 6 6 6 6 6 6 6 6 6 6 6 6 6 6 6 6 7 7 7 7 8 7 7 8 8 8 8 9 9 10 10 11 11 11 11 11 12 12 12 12 13 13 13 14 14
12 13 14 14 16 17 18 19 19 19 20 20 21 25 26 23 19 17 16 16 15 13 11 10 9 8 6 6 5 5 5 5 5 5 5 5 5 5 6 6 6 7 7 7 6 6 6 6 6 6 7 6 7 7 7 7 7 8 8 8 8 8 8 8 8 7 8 8 8 9 9 9 10 10 11 11 11 12 12 12 12 13 13 14 14 14
14 14 15 16 17 17 18 19 20 21 20 18 18 21 24 24 22 19 17 16 14 12 9 8 7 6 5 5 5 5 5 5 5 5 5 5 5 5 5 5 6 6 6 6 6 6 6 6 7 7 7 7 7 7 7 7 8 8 8 8 8 8 8 8 8 8 8 8 8 8 9 9 9 10 10 11 11 11 12 12 13 13 14 15 15 15
17 17 18 19 20 20 20 20 21 24 24 22 22 24 25 23 21 19 16 13 11 10 8 7 6 6 5 4 4 4 5 5 5 5 5 5 5 5 5 5 5 5 5 6 6 6 6 6 7 7 7 7 7 7 7 7 7 7 8 8 8 8 8 8 8 8 8 8 8 8 8 9 9 9 10 10 11 11 12 12 13 14 14 14 15 15
19 19 20 22 24 26 27 26 26 28 28 26 26 26 24 21 19 16 13 10 8 7 6 6 6 5 4 4 4 4 4 4 4 5 5 5 5 5 5 5 5 5 5 5 5 6 6 6 6 7 7 7 7 7 7 6 6 7 7 7 7 7 8 8 8 8 8 8 8 8 8 8 8 9 9 10 10 11 11 11 12 13 13 13 13 14
21 22 23 25 27 29 32 33 34 34 31 26 23 22 20 19 18 16 12 8 7 6 5 5 5 5 5 4 4 4 4 4 4 5 5 5 5 5 5 5 5 5 5 5 6 6 6 6 6 6 6 6 6 6 6 6 6 6 6 6 7 7 7 7 7 7 8 8 8 8 8 8 8 9 9 9 9 10 10 10 11 11 12 12 12 13
22 23 24 26 29 29 31 32 34 35 34 28 23 22 22 22 23 20 14 10 7 5 5 5 5 4 5 4 4 4 4 4 4 4 4 4 4 5 5 5 5 5 5 5 5 5 5 6 5 5 5 5 5 5 5 5 6 6 6 6 7 7 7 7 7 7 8 8 8 8 8 8 8 9 9 9 9 9 9 9 10 10 11 11 11 12
23 24 25 26 28 29 29 30 31 35 38 38 34 31 28 27 26 23 17 12 9 6 6 6 5 5 4 4 4 4 4 4 4 4 4 4 4 4 5 5 5 5 5 5 5 5 5 5 5 5 5 5 5 5 5 5 5 6 6 6 6 6 6 7 7 7 7 7 8 8 8 8 8 8 8 9 9 9 9 9 10 10 11 11 11 12
26 26 25 25 27 28 28 29 30 31 33 34 33 31 28 27 26 22 18 12 8 6 6 6 6 5 5 4 4 4 4 5 4 4 4 4 4 4 4 4 5 5 5 5 5 5 5 5 5 5 5 5 5 5 5 5 5 6 6 6 6 6 6 7 7 7 7 7 8 8 8 8 8 8 9 9 9 9 9 10 10 11 11 11 12 13
28 29 28 27 28 28 28 29 29 29 28 28 27 25 24 23 22 19 15 10 7 6 6 6 6 6 6 5 5 4 4 5 4 5 5 4 4 4 4 4 4 4 5 5 5 5 5 5 5 5 5 5 5 5 5 6 6 6 6 6 6 6 6 7 7 7 7 7 7 8 8 8 8 9 9 9 9 10 10 10 11 11 11 12 12 13
Wind_Speed
43 43 43 43 42 42 42 42 43 43 44 44 44 44 44 44 46 45 45 46 46 46 48 47 47 52 53 52 51 49 49 51 53 52 52 53 54 55 57 57 59 60 61 62 62 64 65 66 67 67 68 68 69 70 72 73 74 75 76 77 77 78 79 80 81 83 84 85 86 87 89 90 91 93 94 96 98 100 102 104 106 107 109 110 111 113
41 41 41 41 41 41 40 40 40 40 41 41 41 42 42 42 44 44 44 45 44 45 47 46 46 51 52 51 51 50 49 51 52 51 51 52 53 54 55 56 58 59 61 61 62 62 63 64 65 65 66 67 67 68 70 71 72 73 74 74 75 75 76 77 78 79 80 81 82 83 84 85 86 87 88 89 90 91 92 94 95 97 98 100 101 102
40 40 40 40 39 39 39 39 39 39 39 39 40 41 41 42 43 44 43 44 44 44 46 45 45 50 52 51 51 50 50 51 50 50 52 52 53 54 55 56 57 59 60 61 61 62 63 63 64 64 65 65 66 67 68 69 69 70 71 71 72 72 73 74 75 76 77 78 79 79 80 81 82 83 84 85 86 87 88 89 90 91 92 93 94 95
40 39 38 38 37 37 37 37 37 37 38 38 39 40 40 41 42 43 44 44 45 44 46 45 44 50 53 52 51 50 50 51 50 50 53 53 53 54 54 55 57 58 60 60 61 62 62 63 64 64 64 65 66 66 67 68 67 68 69 69 69 70 71 72 73 73 74 75 76 77 78 78 79 80 81 81 83 84 85 85 86 87 88 89 89 90
39 38 38 37 36 35 35 35 35 35 36 36 37 38 39 40 40 42 44 45 46 46 46 45 42 48 56 55 53 52 51 52 52 51 53 53 53 53 54 55 56 57 59 60 61 62 63 64 65 65 65 65 65 66 67 67 67 67 68 69 68 69 70 70 71 72 72 73 74 75 76 76 77 78 78 79 80 81 81 82 83 84 84 85 86 87
40 39 38 37 36 35 35 34 34 33 33 34 35 35 37 38 39 40 41 43 45 47 48 44 39 44 56 59 55 53 53 53 53 53 54 54 54 54 55 56 56 57 59 60 61 63 64 65 66 66 67 66 66 67 67 66 67 68 68 69 69 69 69 70 71 71 71 72 72 73 74 75 75 76 77 78 78 78 79 80 81 81 82 82 83 84
41 40 39 38 37 37 36 35 34 34 33 33 33 33 34 35 36 37 38 40 42 45 49 45 39 39 50 60 57 54 56 55 55 55 55 56 56 56 57 57 58 58 60 61 63 65 66 67 68 68 68 68 68 68 67 68 68 68 69 70 70 70 70 71 71 72 72 72 72 73 73 74 75 76 77 77 77 77 78 79 80 80 81 81 82 82
41 41 40 39 39 38 38 37 37 36 35 35 34 33 33 33 33 34 34 36 37 41 47 45 41 38 44 56 58 55 57 57 56 57 56 57 57 57 58 58 59 60 61 63 64 67 68 69 70 70 70 69 69 69 68 68 69 69 70 71 71 71 72 72 72 73 73 74 74 74 74 75 76 77 77 77 78 78 79 80 80 81 81 82 82 83
42 42 41 41 41 40 40 40 39 39 38 38 37 36 35 35 35 33 33 34 33 36 42 41 39 37 39 52 56 53 56 57 57 58 57 57 56 56 57 58 59 60 61 63 65 67 69 70 71 71 71 71 71 71 70 70 70 70 71 72 72 73 74 74 74 74 75 76 76 75 76 77 78 79 79 79 80 81 82 82 82 83 83 84 84 85
43 43 43 42 42 42 42 41 41 41 40 40 40 39 38 38 37 36 35 36 34 35 39 39 37 34 35 46 52 49 52 55 56 57 56 56 56 56 57 57 58 59 61 62 64 66 68 70 72 72 73 74 73 73 72 72 72 72 73 73 73 75 76 76 76 77 77 78 78 78 78 79 80 80 81 81 82 83 83 84 84 85 85 86 86 87
44 44 44 44 43 43 43 43 42 43 42 42 42 42 41 40 40 38 38 38 36 36 39 40 39 37 36 45 51 49 50 52 52 53 51 51 51 52 53 55 57 58 59 61 62 63 65 67 69 70 71 73 73 73 73 73 73 73 74 75 75 76 77 78 79 79 80 80 80 81 81 82 82 83 82 83 84 85 85 86 86 87 87 88 88 88
46 45 45 45 45 45 45 45 44 44 44 43 43 44 44 43 41 39 39 40 38 38 39 39 40 40 40 46 52 53 56 56 53 51 49 47 47 48 49 50 52 54 56 58 60 61 63 64 66 67 68 69 69 69 70 71 72 72 74 75 76 77 78 79 79 80 81 82 82 83 84 84 85 85 85 85 86 87 87 88 88 89 89 89 90 90
49 48 47 47 47 47 46 47 47 47 47 45 45 46 46 46 43 40 41 40 38 38 38 38 40 39 41 47 51 55 60 63 60 54 51 50 49 49 49 49 49 50 51 53 55 58 61 63 64 65 65 66 66 66 66 67 68 69 70 72 73 75 77 78 79 80 81 82 83 84 84 85 85 86 86 87 87 88 88 89 89 89 90 90 91 92
51 51 50 49 50 50 49 49 50 50 50 48 48 49 49 51 48 43 43 42 40 39 38 38 40 38 40 45 49 55 63 69 68 63 58 55 52 52 52 51 50 50 50 50 51 53 55 58 60 62 63 64 65 66 66 66 66 67 67 68 70 71 73 75 76 78 79 80 82 83 84 84 85 86 87 87 88 88 88 89 89 89 90 90 91 91
50 51 53 52 52 53 52 52 53 54 54 52 51 53 53 55 54 49 46 45 43 40 37 39 41 38 39 42 46 55 64 71 73 73 70 63 58 55 54 54 52 51 52 53 52 52 52 54 56 58 60 61 63 64 64 65 65 66 67 67 68 70 71 72 74 75 77 78 80 81 82 83 84 85 86 87 87 88 88 88 89 89 89 90 91 91
48 49 53 53 53 54 55 55 56 57 58 55 53 55 56 57 59 56 51 48 48 42 37 40 41 38 39 39 43 55 63 68 74 77 78 73 67 61 56 55 55 53 54 55 54 55 56 57 58 59 59 60 62 63 63 64 64 65 66 66 67 69 70 71 72 74 75 77 78 79 80 82 83 83 84 85 86 86 87 88 88 89 89 90 90 91
49 47 51 54 54 55 56 56 58 60 61 59 56 57 58 59 61 62 58 53 53 46 38 39 40 39 40 36 41 53 60 66 73 77 79 78 76 69 60 58 58 55 54 55 57 58 60 62 64 65 64 63 63 64 64 65 65 66 66 67 67 68 69 70 72 73 74 76 78 79 80 81 82 83 84 84 85 86 87 87 88 89 89 90 91 91
54 48 48 53 55 55 56 58 60 62 64 63 61 61 62 63 64 66 65 60 59 54 43 39 38 38 38 36 41 50 57 66 73 75 78 80 81 77 67 63 61 57 56 57 60 61 62 66 69 71 71 68 66 66 66 67 67 68 68 69 69 70 70 71 72 73 74 75 77 78 80 81 82 83 84 85 86 87 88 88 89 90 91 92 92 92
60 52 48 51 56 56 58 61 62 65 67 66 66 67 67 69 69 70 70 67 67 63 50 41 37 36 38 42 46 49 55 67 74 75 79 82 84 82 74 68 64 61 60 61 62 63 65 68 72 75 77 75 71 70 70 70 70 70 70 71 72 72 73 74 75 76 77 77 78 79 80 81 82 83 84 86 87 88 89 90 90 91 92 93 93 93
67 61 52 51 55 56 58 63 65 67 70 70 70 71 72 74 75 75 75 74 75 74 62 49 40 37 43 50 53 53 58 69 74 76 80 83 84 84 80 74 69 66 66 67 67 67 68 72 75 78 81 80 78 77 76 75 74 74 74 74 74 75 76 77 78 79 80 81 82 82 83 84 85 86 87 88 89 90 91 91 92 93 94 95 95 95
73 70 62 58 58 58 58 64 67 69 72 73 74 75 75 78 80 81 81 79 81 83 76 65 51 45 53 61 61 61 65 71 74 76 79 82 83 84 83 80 77 75 74 74 74 73 74 76 79 81 84 84 83 83 82 81 79 79 79 79 79 79 79 80 81 82 84 84 85 86 87 88 88 89 90 91 92 93 94 95 96 96 97 97 98 98
79 76 72 67 65 63 63 66 69 71 74 76 77 77 78 81 84 87 88 85 86 88 85 82 71 61 65 71 69 70 72 72 73 75 77 80 82 84 85 85 85 84 82 81 80 79 81 82 84 85 87 88 87 87 87 86 85 85 84 84 84 84 84 84 85 86 87 88 89 89 90 91 92 93 94 95 96 97 98 98 99 100 101 101 101 102
83 82 79 75 72 70 69 70 72 74 77 79 80 80 82 84 86 91 93 91 92 92 89 92 87 76 75 78 78 80 80 78 77 78 79 81 83 86 89 90 91 90 89 87 85 85 86 87 88 89 90 91 91 90 90 90 90 90 89 89 88 88 89 89 89 90 90 91 92 93 93 94 94 95 96 98 99 100 101 102 103 104 104 104 104 105
85 85 84 81 78 75 74 75 76 79 82 83 83 84 86 88 89 94 96 96 97 94 90 95 94 84 83 86 85 86 85 81 80 81 83 85 87 89 91 93 94 94 93 92 90 90 91 92 93 93 93 94 95 95 94 94 93 93 93 93 92 92 92 93 93 93 93 94 94 95 95 96 96 97 98 100 101 102 103 104 105 106 107 107 107 107
87 87 87 88 86 83 79 78 80 83 86 86 86 88 89 91 93 95 96 98 98 92 91 97 96 87 88 93 91 89 87 83 83 84 85 88 89 90 91 93 95 96 96 95 94 94 95 96 97 97 97 97 98 98 98 98 97 96 96 96 95 95 95 95 95 95 95 95 96 96 96 97 98 99 100 101 103 103 104 105 107 108 108 109 109 109
90 89 90 92 94 92 88 87 88 90 91 90 90 91 92 93 94 95 96 97 96 92 92 95 92 89 92 94 91 88 86 85 84 84 86 87 88 89 90 91 93 94 95 95 95 96 97 98 99 99 100 100 100 100 100 100 100 99 98 97 97 97 97 96 96 96 96 96 96 96 97 97 99 100 102 103 104 105 105 106 107 108 109 109 109 109
93 91 90 94 96 96 94 94 95 97 97 96 94 93 93 94 94 95 96 95 94 95 93 88 87 90 92 90 87 86 85 85 86 86 87 88 88 88 89 90 91 92 92 92 93 94 95 97 98 99 100 100 100 101 101 101 101 100 100 99 99 99 98 98 97 97 97 97 97 98 98 99 101 102 104 105 105 106 107 107 108 109 110 110 110 110
96 93 92 95 97 96 96 96 98 100 99 97 96 94 92 93 93 93 94 92 92 95 91 83 83 90 92 88 86 85 85 86 87 88 90 90 89 89 90 91 92 92 91 91 91 92 93 94 96 97 98 98 99 99 100 100 100 100 100 99 99 99 99 98 98 98 98 99 99 100 100 102 103 104 106 107 107 108 108 109 109 110 110 111 111 111
98 96 95 98 99 97 97 98 98 98 97 96 96 94 91 89 89 89 89 87 88 91 90 85 84 89 91 89 87 87 87 87 88 90 92 92 91 91 92 93 94 94 93 92 92 92 92 92 94 95 96 97 98 98 98 97 97 97 97 97 97 97 97 97 97 97 98 98 99 100 102 103 104 105 107 108 108 109 109 110 110 111 111 111 111 112
100 99 99 101 100 95 95 98 98 97 96 94 93 90 88 87 85 84 83 82 83 86 87 86 86 88 90 90 89 90 91 91 92 94 95 95 94 94 94 95 95 96 95 94 94 94 93 93 94 94 95 96 97 97 97 96 95 94 94 94 94 94 95 95 95 96 97 98 99 100 102 103 104 105 106 107 108 108 108 109 109 110 110 110 111 112
103 102 102 103 100 95 94 97 97 95 94 92 89 86 84 83 82 80 80 79 80 82 85 86 87 88 90 91 92 93 94 95 96 97 99 99 97 97 97 97 97 97 97 97 96 96 96 96 96 96 96 97 97 97 97 96 95 94 94 94 94 94 95 96 96 97 99 100 101 102 102 103 104 105 105 106 106 107 107 107 108 108 108 109 109 110
105 105 104 104 101 95 94 95 94 91 90 89 87 84 82 81 80 79 78 78 79 81 83 85 87 88 89 91 94 95 96 97 98 99 100 100 99 99 99 99 98 98 98 98 98 97 97 97 97 98 98 98 98 98 97 96 95 95 95 96 96 97 97 98 99 100 101 102 103 103 104 104 105 105 105 106 106 107 107 107 107 107 107 108 108 109
107 106 104 103 100 95 92 93 92 90 88 87 86 83 81 80 79 78 78 78 79 81 82 84 86 87 88 90 91 93 95 96 97 98 99 99 98 98 99 98 98 98 98 98 97 97 97 97 97 98 98 99 99 99 98 97 97 97 97 98 98 99 100 100 101 102 103 104 104 105 105 106 106 107 107 108 108 109 108 108 108 108 108 108 109 109
105 104 102 101 99 96 93 94 92 90 88 86 83 81 79 78 77 76 76 77 78 80 83 85 86 86 87 88 89 89 90 92 94 96 97 96 95 95 95 96 96 96 96 96 96 96 96 95 95 96 97 97 97 97 97 97 97 98 98 99 99 100 101 101 102 102 103 104 105 106 107 107 108 109 109 110 110 110 109 109 109 109 109 110 110 110
103 102 100 100 99 97 94 92 90 86 83 80 77 75 75 75 75 75 75 76 77 79 82 85 86 87 88 88 88 87 86 87 89 91 92 92 91 91 90 90 92 93 93 93 93 93 93 93 93 93 94 94 95 96 96 96 97 97 98 98 99 100 101 101 102 102 103 104 105 106 107 108 109 109 110 110 110 110 109 109 110 110 111 111 110 110
100 100 98 96 95 93 90 87 84 81 77 73 71 71 72 73 74 76 77 77 79 81 83 85 87 88 89 89 88 86 84 83 84 86 87 85 85 85 84 83 84 86 87 88 88 88 89 90 90 90 90 91 92 93 94 94 94 94 94 95 96 97 98 99 100 101 102 103 105 106 107 107 108 108 108 108 109 109 109 109 110 110 110 110 109 109
96 94 92 90 87 86 83 79 76 75 72 70 70 71 72 73 75 77 77 77 80 85 86 86 86 87 87 86 85 85 83 81 80 83 84 83 81 81 80 78 78 78 80 81 82 82 83 83 84 85 86 86 87 89 90 90 90 90 90 91 92 92 93 95 96 97 99 100 102 103 104 105 105 105 106 106 107 107 108 108 109 109 109 109 109 109
87 85 84 82 80 78 77 74 72 70 69 68 69 71 73 75 76 77 77 76 79 85 86 86 86 85 83 82 81 80 79 76 74 76 80 82 81 81 80 78 77 76 75 76 76 77 77 78 79 80 80 81 81 83 85 85 85 86 86 86 87 87 88 89 90 92 93 94 96 97 99 100 101 102 102 103 104 105 106 107 107 107 108 108 108 108
80 78 77 77 76 75 73 72 71 70 69 69 69 70 72 75 77 78 77 77 80 85 87 87 86 84 82 79 77 76 74 71 68 68 73 77 78 79 80 79 78 77 76 76 75 74 74 75 76 77 77 78 78 78 79 79 79 80 81 82 82 82 83 84 86 87 87 88 89 91 92 93 95 96 97 99 100 101 102 103 103 104 105 105 105 105
74 74 74 74 74 73 72 72 72 72 72 71 71 70 71 74 77 79 78 78 80 83 86 88 88 85 82 79 76 74 72 69 64 63 66 71 73 76 78 78 77 77 77 77 77 76 74 73 73 74 75 76 76 75 75 75 75 75 76 77 77 78 79 80 81 81 82 83 84 85 86 87 89 90 92 93 95 96 97 97 98 99 100 101 101 101
70 71 71 72 73 73 72 72 72 73 73 73 74 74 72 72 75 79 81 81 80 81 84 87 87 85 83 80 78 75 72 70 66 63 63 65 67 69 72 74 76 76 75 75 76 77 76 74 74 74 74 74 74 74 73 73 72 72 73 73 74 75 76 76 76 77 78 79 79 80 82 83 85 86 88 89 90 90 91 92 93 94 94 95 95 96
69 70 71 72 73 74 73 73 72 73 75 75 75 78 78 76 76 78 81 82 82 81 82 83 84 83 80 78 77 75 72 70 69 66 65 65 65 65 67 69 72 73 74 74 74 75 74 73 73 74 74 74 73 72 71 71 71 71 72 72 72 74 74 74 74 74 74 75 76 77 78 80 81 82 83 84 84 85 86 87 88 88 89 90 90 91
72 72 72 73 73 74 74 74 73 74 75 74 74 77 80 82 81 80 80 81 82 81 79 79 79 79 76 74 74 73 71 68 67 66 65 65 66 65 65 66 68 69 71 73 74 74 73 71 71 72 73 73 72 71 70 69 69 69 70 71 72 73 73 73 73 73 73 73 74 75 76 77 77 78 79 80 80 81 81 82 83 84 84 85 86 87
77 76 76 76 76 75 74 75 76 77 77 77 76 78 81 84 85 85 85 84 84 83 81 79 77 75 73 70 68 68 67 66 65 65 64 64 65 65 64 64 64 65 66 68 69 71 70 69 69 69 70 70 70 69 68 68 67 68 68 69 70 71 71 72 72 72 72 73 73 73 73 74 74 75 76 76 77 77 77 78 78 79 80 81 82 83
80 79 78 78 78 78 77 76 77 80 82 81 81 83 85 86 87 89 89 88 87 85 84 83 80 78 74 69 65 63 62 62 61 62 62 62 63 64 63 63 63 62 61 62 63 64 65 65 65 65 66 67 67 66 65 65 64 65 65 66 67 67 68 69 69 69 70 70 70 71 70 71 71 71 72 72 73 73 73 74 74 75 76 77 78 79
80 79 79 78 79 80 81 81 81 84 87 86 84 85 87 87 88 90 90 89 87 85 83 82 81 79 77 73 67 63 60 58 57 58 59 60 61 61 61 61 61 61 60 59 59 60 60 61 61 61 62 63 63 63 62 62 62 61 62 62 63 64 64 65 65 66 66 67 67 67 67 67 67 67 68 68 69 69 70 70 71 72 73 74 75 75
81 80 79 79 80 81 82 83 84 86 89 88 86 85 87 88 90 91 91 89 86 84 81 79 78 76 75 74 71 66 62 60 57 57 58 59 59 59 59 59 59 59 59 58 57 57 57 57 58 58 59 59 59 59 59 59 59 59 59 59 60 60 61 62 62 63 63 64 64 64 64 64 64 64 65 65 66 67 67 68 68 69 70 71 71 71
82 81 80 79 81 82 82 82 82 85 90 92 90 89 89 89 89 91 92 90 88 85 82 79 76 72 70 70 69 66 63 61 59 58 58 59 58 57 57 58 58 58 58 57 57 56 56 56 56 56 57 57 57 57 57 57 57 57 56 57 57 57 58 58 59 59 60 60 61 61 61 61 62 62 63 63 64 64 65 65 65 66 67 67 67 67
83 83 82 80 80 81 82 82 81 81 84 87 89 89 88 87 87 88 90 90 88 85 81 78 75 72 69 67 66 64 62 61 59 59 59 59 58 56 55 56 56 57 57 57 57 56 55 55 55 55 56 56 56 56 55 55 55 55 55 55 55 55 55 56 56 57 57 58 58 58 59 59 59 60 60 60 61 61 61 62 62 62 63 63 62 62
84 84 83 82 81 81 82 82 81 80 79 80 82 83 84 83 84 85 86 86 85 83 78 74 72 71 69 68 66 63 61 60 59 59 59 59 58 55 54 54 54 55 55 55 55 54 54 53 54 54 55 55 54 54 54 54 53 53 53 53 53 53 53 54 54 54 55 55 55 56 56 56 57 57 57 58 58 58 58 58 58 58 59 59 58 58
86 86 85 83 83 83 83 83 83 82 81 81 81 81 81 81 81 82 83 84 83 80 75 70 67 65 66 67 67 64 61 59 59 58 58 58 58 56 54 53 52 53 54 54 53 53 52 52 52 52 53 53 53 53 53 52 52 52 51 51 51 51 51 51 52 52 52 52 52 53 53 53 53 54 54 55 55 55 55 55 56 56 56 56 56 57
Wind_Direction
307 306 304 303 301 299 296 293 290 288 286 285 283 282 280 279 278 277 276 275 275 274 274 274 273 272 272 273 272 271 271 270 270 270 270 269 269 269 270 270 269 268 267 267 266 266 266 265 265 265 264 263 262 262 262 262 262 262 262 262 261 261 261 261 261 260 260 260 260 260 260 260 261 260 260 260 260 260 260 260 260 260 261 261 261 261
311 310 308 307 305 303 301 298 295 292 290 288 285 283 281 279 278 277 277 276 275 275 274 274 273 273 273 273 272 271 271 271 271 272 271 270 270 270 270 271 271 271 271 270 269 269 269 269 268 268 267 266 265 265 264 263 263 263 263 263 263 263 262 262 262 262 262 262 262 262 262 262 262 262 262 262 262 262 262 262 262 261 261 261 261 261
316 315 314 313 311 309 307 304 301 298 295 292 289 287 284 282 280 278 277 276 275 274 274 274 274 274 274 273 273 272 272 271 271 272 271 270 270 270 270 270 271 271 271 271 271 271 270 270 270 269 269 269 269 268 267 266 266 266 266 265 265 265 265 264 264 264 264 264 264 264 263 263 263 263 263 263 263 263 263 263 263 263 263 263 263 262
320 320 319 318 317 315 313 310 306 303 299 296 292 290 288 285 283 282 280 278 276 275 274 274 275 275 274 273 272 271 271 271 271 271 271 271 270 270 270 270 270 271 271 271 271 271 271 270 270 269 269 269 269 269 268 268 268 268 267 267 267 267 267 266 266 266 266 266 266 266 265 265 265 264 264 264 264 264 264 264 264 264 264 264 264 264
322 321 321 321 321 320 319 316 313 309 305 301 296 293 290 288 286 284 283 282 281 278 275 274 275 277 276 274 272 271 270 270 270 269 269 269 269 270 270 270 270 270 271 271 272 272 271 271 270 269 269 268 268 268 268 269 269 269 269 268 268 268 267 267 267 267 266 266 266 266 266 266 265 265 265 265 264 265 265 265 265 265 265 265 265 265
322 323 323 323 322 321 321 320 319 316 313 309 304 300 295 291 289 286 285 284 284 282 279 277 275 276 278 278 275 274 273 271 270 269 268 268 268 268 268 268 268 269 269 270 270 271 270 270 270 269 269 268 268 268 268 268 268 268 268 268 268 267 267 267 267 267 266 266 266 265 265 265 265 265 265 264 265 265 265 265 265 265 265 265 265 265
322 322 323 323 322 321 321 320 320 319 318 316 312 309 305 300 296 292 289 286 285 285 283 281 277 275 278 279 278 277 276 273 272 270 269 268 267 266 266 266 266 266 267 267 268 268 268 268 268 268 268 269 269 269 269 268 268 268 268 267 267 266 266 266 266 266 266 265 265 265 265 265 265 265 265 265 265 265 265 265 265 265 265 265 265 265
321 321 321 322 321 321 320 320 319 318 318 316 315 314 312 310 307 304 300 295 291 289 287 286 283 278 278 279 278 279 278 276 274 272 270 269 268 268 267 267 266 266 266 266 266 267 267 267 267 267 267 268 268 268 268 268 268 268 268 268 268 268 267 267 266 267 266 266 265 265 265 265 265 265 265 265 265 265 265 265 265 265 265 265 265 265
320 320 320 320 320 320 319 319 318 317 316 315 315 314 313 312 311 311 310 305 303 300 295 295 292 288 284 280 278 278 278 278 277 275 273 272 271 270 270 270 269 268 268 267 267 268 269 269 269 269 269 268 268 268 268 268 268 268 268 269 269 270 270 269 269 268 268 268 267 266 266 265 265 265 265 265 265 265 265 265 264 264 264 264 264 264
320 319 318 318 318 318 317 316 316 315 315 315 314 313 312 311 310 311 310 307 308 306 302 303 302 299 295 287 284 282 281 280 280 279 278 277 276 274 273 272 271 270 269 269 269 270 270 271 271 271 271 271 270 270 270 269 269 268 268 268 268 269 269 269 269 269 269 269 269 268 268 267 267 266 266 266 266 266 266 266 266 266 266 266 266 266
319 318 318 317 316 315 315 314 313 312 312 312 311 310 309 308 308 309 309 307 307 306 304 306 305 304 302 294 292 290 287 284 283 282 283 283 282 279 277 275 273 271 270 270 270 270 270 271 271 271 271 272 272 271 271 270 270 270 269 269 268 267 267 267 268 268 268 268 268 268 268 268 268 267 267 267 267 267 267 267 267 267 267 267 267 267
319 318 317 316 315 314 314 313 312 310 309 308 307 306 305 304 303 305 305 304 305 305 304 306 305 305 304 298 297 297 293 289 286 286 288 288 287 285 283 281 279 278 276 274 273 272 272 273 273 274 274 274 274 273 272 271 270 270 269 269 269 268 268 267 267 268 268 268 268 268 268 268 268 268 268 267 267 267 267 267 267 267 267 267 267 267
318 317 316 315 314 313 312 312 311 309 307 307 306 304 302 300 298 299 298 298 300 300 300 302 301 303 303 299 299 300 295 291 289 288 288 288 287 286 285 284 284 284 282 281 279 276 275 275 275 275 276 277 277 276 275 273 272 271 270 270 269 269 269 269 269 268 268 268 268 268 268 268 268 269 268 268 268 268 268 268 267 267 267 267 267 267
319 318 316 316 314 313 312 312 310 309 307 307 306 304 302 299 297 296 294 293 293 293 295 295 294 297 297 297 299 298 293 291 291 289 286 283 283 283 283 283 284 284 284 283 281 279 276 275 274 274 274 275 276 276 276 276 275 273 272 271 270 270 270 270 270 270 270 269 269 269 269 269 269 269 269 269 269 269 269 268 268 268 268 268 268 268
319 318 316 315 315 313 313 312 310 308 306 307 307 304 303 301 299 296 293 292 290 289 290 289 289 291 291 293 296 293 290 291 291 290 287 283 280 279 280 281 282 283 283 282 281 280 278 276 275 274 273 274 274 275 276 276 276 275 275 274 273 272 271 271 271 271 271 270 270 270 270 270 269 269 269 269 269 269 269 269 269 269 268 268 268 268
319 318 315 315 314 313 313 312 310 308 306 307 307 305 304 303 301 299 297 295 292 290 289 286 286 289 290 293 294 289 288 291 292 290 289 287 284 280 280 280 280 281 281 280 280 280 279 279 277 276 274 274 274 274 275 276 276 276 276 275 275 274 273 272 272 271 271 271 271 271 271 271 270 270 270 270 270 270 270 270 270 269 269 269 269 269
318 318 315 314 313 313 313 312 310 308 306 307 307 305 303 302 301 300 299 297 294 292 289 286 286 288 290 293 290 287 289 291 290 289 290 290 288 285 284 284 282 281 279 278 278 279 279 279 279 277 275 274 274 274 275 275 276 276 276 276 275 275 275 274 273 272 272 272 271 271 271 271 271 271 271 271 271 271 271 271 271 270 270 270 270 269
316 319 318 315 313 313 313 311 309 308 307 307 307 305 304 302 301 300 299 299 297 294 291 288 287 287 288 287 283 283 286 285 284 285 287 288 288 288 288 287 284 282 280 279 279 280 280 281 281 279 277 274 273 273 273 274 275 275 276 276 276 276 275 274 274 273 273 272 272 272 272 272 272 272 272 272 272 271 271 271 271 270 270 270 270 270
315 318 319 315 313 314 314 311 309 308 308 308 308 306 305 304 303 302 302 301 299 297 294 290 287 286 287 284 279 279 279 278 279 281 282 284 286 288 288 286 284 283 282 280 280 281 281 281 281 280 278 276 274 273 273 273 273 274 275 275 276 276 276 275 275 274 273 272 272 272 272 272 272 272 271 271 271 271 271 271 271 270 270 270 270 270
314 316 317 315 313 314 314 311 309 309 308 308 307 307 306 305 305 304 303 303 302 300 298 293 288 288 288 284 280 278 274 273 274 277 279 282 284 285 286 285 284 283 281 280 280 280 280 279 278 278 277 277 276 275 274 273 273 273 274 274 274 275 275 275 275 274 273 273 272 272 272 271 271 271 271 271 271 271 271 271 270 270 270 270 270 270
314 315 317 317 314 314 314 310 309 309 308 306 306 306 306 305 304 303 302 303 302 301 301 299 292 291 292 288 283 279 273 271 272 274 276 278 280 282 284 285 284 281 280 279 279 278 277 276 276 276 276 276 276 276 276 275 274 274 274 274 274 274 274 275 274 274 274 274 273 273 272 272 271 271 270 270 270 270 270 270 270 269 270 270 270 270
315 315 317 318 316 316 314 310 310 309 307 304 305 306 306 304 304 303 302 302 301 300 302 301 297 295 296 291 286 281 276 274 273 273 274 275 277 280 282 282 281 280 278 277 277 276 275 274 274 274 275 275 275 275 275 275 275 274 274 274 273 274 274 274 274 274 274 274 273 273 273 272 272 271 271 271 270 270 269 269 269 269 269 269 269 269
315 316 317 317 317 316 314 313 312 309 305 304 305 306 305 303 302 301 300 301 300 300 301 301 298 297 295 291 287 284 281 278 276 275 274 275 276 278 278 278 278 278 277 277 276 275 275 274 274 274 274 274 275 275 275 275 275 274 274 273 273 273 273 273 273 274 274 274 273 273 273 273 272 272 271 271 271 270 270 270 269 269 269 269 269 269
315 316 316 317 316 315 314 313 311 308 305 305 306 305 303 302 301 299 299 299 298 299 301 298 295 296 295 291 287 285 283 281 280 279 278 277 275 275 275 276 276 276 276 276 275 275 275 274 274 274 274 274 274 274 274 274 274 273 273 273 273 273 272 273 273 273 273 273 273 274 274 273 273 272 272 271 271 270 270 270 270 270 270 270 270 270
315 316 316 316 315 314 314 313 309 306 304 304 304 303 301 301 299 298 298 297 297 299 299 294 294 296 295 290 288 286 286 286 284 282 280 279 277 276 275 275 275 275 275 275 275 275 274 274 274 274 274 274 274 274 274 274 273 273 273 273 273 273 272 272 273 273 273 273 273 273 273 273 273 273 272 272 271 271 271 271 271 271 271 271 271 271
315 315 316 315 313 314 314 313 309 306 304 304 303 302 301 300 299 298 298 297 298 298 295 293 296 297 292 289 289 290 290 289 287 285 283 281 279 277 276 276 275 275 275 275 274 274 274 274 273 273 273 273 273 273 273 274 274 274 273 273 273 273 273 273 273 273 273 273 273 273 273 273 272 272 271 271 271 271 271 271 271 271 272 272 272 272
313 315 315 313 311 312 312 311 308 306 304 304 303 302 301 300 300 299 298 298 298 296 294 296 298 294 290 290 292 292 291 290 289 287 285 283 282 281 280 279 277 276 276 275 274 274 274 273 273 273 273 273 273 273 273 273 273 274 274 274 274 274 274 274 274 274 274 273 273 273 272 272 271 271 271 271 271 271 271 271 271 272 272 272 273 273
312 313 313 310 308 309 310 308 306 304 304 304 303 302 302 301 300 300 299 299 298 296 296 298 296 292 292 293 293 292 291 290 289 288 286 285 284 283 282 281 280 279 278 277 276 275 274 274 274 274 274 274 273 273 273 273 273 273 273 274 274 274 274 274 274 274 274 273 273 273 272 271 271 271 270 270 271 271 271 271 272 272 272 273 273 273
310 311 310 308 307 308 308 306 304 303 304 304 303 303 302 302 300 299 299 299 298 297 297 297 295 293 294 294 294 293 292 291 290 288 287 286 285 284 283 282 281 280 279 278 277 276 275 275 275 274 274 274 274 273 273 273 273 273 273 273 274 274 274 274 274 274 273 273 272 272 271 271 271 271 271 271 271 271 272 272 272 273 273 273 274 274
310 310 309 307 307 308 307 305 304 304 304 303 303 303 303 302 300 299 298 298 296 296 296 296 295 295 295 295 296 295 294 293 291 290 288 287 286 285 284 282 281 281 280 279 279 278 277 276 275 274 274 274 274 274 273 273 273 273 273 273 273 274 274 274 273 273 273 272 272 272 271 271 271 271 272 272 272 272 273 273 273 273 274 274 274 274
309 309 308 307 308 310 308 305 305 305 304 304 304 303 302 301 300 299 297 296 296 295 296 296 296 296 296 297 297 296 295 294 293 291 290 289 287 286 285 283 282 281 280 280 279 278 277 277 276 275 275 274 274 274 274 274 274 274 274 274 273 273 273 273 273 272 272 272 271 271 271 271 271 272 272 272 272 273 273 273 273 273 273 273 274 274
310 310 310 309 309 310 308 305 305 305 305 305 305 304 303 302 300 299 298 297 297 296 296 296 297 297 297 297 297 297 296 295 293 292 290 289 288 286 285 283 282 281 280 279 278 278 277 276 276 276 275 275 274 274 274 274 274 274 274 273 273 273 272 272 272 271 271 271 271 271 271 271 271 271 271 272 272 272 272 272 272 273 273 273 273 274
310 310 310 309 309 310 309 307 307 308 308 307 306 305 304 302 300 299 298 298 297 297 296 296 296 296 297 297 296 296 295 294 293 291 289 288 287 285 284 283 282 281 280 280 279 278 277 277 276 276 275 275 275 274 274 274 274 273 273 272 272 271 271 270 270 270 270 270 270 270 271 271 271 271 271 271 271 271 271 272 272 273 273 273 273 273
310 310 310 310 311 311 311 309 309 309 308 307 305 304 302 299 298 297 296 296 297 297 297 297 297 298 298 298 297 295 294 293 291 290 288 287 286 285 284 283 282 282 281 280 279 279 278 277 277 276 276 275 275 274 274 273 273 272 271 271 270 270 270 269 269 269 269 269 269 269 269 269 269 269 270 270 270 271 271 272 272 272 272 272 272 273
312 312 312 312 311 311 310 308 307 306 304 303 302 300 297 296 296 295 295 296 297 297 299 300 301 301 301 299 298 296 294 292 290 289 287 286 285 284 283 283 282 282 281 281 280 280 279 279 278 277 277 276 276 275 274 273 272 272 271 271 270 270 270 270 269 269 269 269 269 269 269 269 269 269 269 270 270 271 271 272 272 272 272 272 272 273
312 311 311 309 308 307 306 305 304 303 302 301 300 297 296 297 298 298 299 301 302 303 303 304 304 303 302 301 299 298 296 294 292 290 288 286 285 284 283 282 281 281 281 280 280 280 279 279 279 278 277 277 276 276 275 274 274 273 272 272 271 271 270 270 270 269 269 269 269 269 269 269 270 270 270 271 271 271 272 272 272 272 272 273 273 273
310 308 307 306 305 304 303 303 303 303 304 304 302 301 301 302 302 303 304 306 307 306 305 305 304 303 302 301 299 298 297 295 294 292 291 289 288 286 285 283 282 281 280 280 280 279 279 278 278 278 277 277 276 275 275 275 274 274 273 273 272 271 271 270 270 270 269 269 269 270 270 270 271 271 271 271 272 272 272 272 272 272 273 273 273 273
306 305 304 304 304 304 304 305 304 304 305 306 305 305 306 306 305 305 306 308 308 306 306 306 306 304 303 301 300 299 297 295 294 292 291 290 290 289 288 287 286 284 283 281 281 280 280 279 278 278 277 277 276 275 275 275 275 275 275 274 274 273 273 272 272 271 271 270 271 271 271 271 271 271 272 272 272 272 272 272 272 272 272 272 272 273
306 306 306 307 307 308 308 309 308 307 307 306 306 307 308 308 307 307 308 310 310 309 308 307 307 306 305 304 303 301 298 296 294 292 290 289 290 290 290 290 289 288 287 286 284 283 282 281 281 280 280 279 277 277 277 277 276 276 276 276 276 276 275 275 274 273 273 273 273 272 272 272 272 272 271 271 271 271 271 271 271 271 271 272 272 272
309 310 310 311 311 311 312 312 311 311 310 309 309 309 310 309 309 309 310 311 311 310 310 309 308 308 307 306 305 303 300 297 294 291 289 288 289 289 290 290 290 289 289 289 288 287 286 284 283 283 282 281 281 280 280 279 279 279 278 278 277 277 276 275 275 275 274 274 273 273 273 272 272 271 271 271 271 271 271 271 271 271 271 271 271 272
312 313 313 314 314 314 314 314 313 313 312 312 312 311 310 310 310 312 313 312 312 312 311 310 310 309 309 309 308 305 303 300 297 294 291 289 288 288 288 289 289 289 288 288 288 287 287 287 286 285 284 284 284 284 283 283 283 282 281 280 279 278 277 276 276 275 274 274 274 274 273 272 272 271 271 271 271 271 272 271 271 271 271 271 272 272
316 317 317 317 317 316 316 316 316 315 314 314 314 315 314 313 313 314 314 313 313 313 312 311 310 310 309 309 308 305 303 301 299 297 295 293 291 290 289 288 288 288 289 288 287 287 287 287 287 286 286 286 286 286 286 285 285 284 283 282 281 280 279 278 278 277 276 276 275 274 274 273 273 273 273 273 273 273 273 273 272 272 272 272 272 272
320 321 320 320 319 319 318 318 317 316 314 314 315 316 316 315 315 314 313 313 314 314 313 312 311 310 310 309 307 305 303 300 298 297 296 295 294 292 291 289 288 288 288 288 288 288 289 289 288 288 288 288 288 287 287 286 285 284 283 283 282 281 281 281 280 280 279 278 277 276 276 275 275 275 275 275 275 275 275 275 274 274 274 274 273 273
324 324 323 322 321 320 320 320 319 317 316 316 317 318 317 316 316 315 315 316 317 317 316 314 313 311 310 309 307 304 302 300 299 298 297 296 295 293 292 290 289 288 287 287 287 288 289 289 289 288 287 287 287 286 286 285 284 283 282 281 281 281 280 280 280 280 279 278 278 277 277 276 276 276 276 276 276 276 276 276 276 275 275 274 273 273
325 325 325 324 323 322 321 321 321 319 318 319 320 319 318 317 317 317 318 319 320 319 318 317 315 313 312 310 308 305 302 300 299 299 298 297 296 294 293 292 291 289 288 287 286 286 287 286 286 285 285 285 284 284 283 283 282 281 280 280 279 279 278 278 278 278 278 278 277 277 277 276 276 276 276 276 276 276 276 276 276 275 274 274 273 273
325 325 325 324 324 323 323 323 323 321 319 319 320 319 318 319 319 320 320 321 321 320 319 317 315 314 313 312 311 308 305 303 301 299 298 297 296 295 294 293 292 291 290 288 287 286 285 285 284 284 283 283 284 284 283 283 282 281 280 280 279 279 279 279 278 278 278 278 277 277 277 277 277 277 276 276 276 275 275 275 274 274 274 274 273 274
325 325 325 325 324 323 323 323 322 321 319 318 319 320 320 321 321 320 320 320 320 320 319 317 315 314 313 312 312 311 309 307 305 303 300 299 298 297 296 295 294 293 292 290 289 287 286 286 285 285 284 284 284 284 284 283 283 282 282 281 281 280 280 279 279 279 279 279 278 278 278 278 278 277 276 276 275 275 275 274 274 274 274 274 275 275
325 325 325 324 323 322 321 321 321 320 319 319 320 321 321 321 319 318 318 319 320 320 319 317 315 314 312 311 311 311 311 309 307 305 303 301 300 300 299 298 297 296 294 293 291 290 290 289 288 288 287 287 286 286 285 285 284 284 283 282 281 281 280 280 280 280 280 280 280 280 279 279 279 278 278 277 277 276 276 276 276 276 276 276 277 277
325 324 324 323 322 321 320 320 320 319 318 317 318 318 318 318 317 317 317 318 319 319 319 317 316 315 313 312 311 310 310 309 308 306 304 303 302 301 300 299 298 297 296 295 294 293 293 292 291 291 290 290 289 289 288 287 287 286 285 284 284 283 283 282 282 282 281 281 281 281 281 280 280 280 279 279 279 279 279 278 278 278 278 279 279 279
324 323 322 322 321 320 320 319 319 318 317 316 315 315 315 316 316 316 316 317 317 317 317 316 316 316 315 313 312 311 311 310 308 306 305 304 303 302 301 299 298 297 296 295 294 294 294 293 293 292 292 292 291 291 290 290 289 288 287 287 286 286 285 285 284 283 283 283 282 282 281 281 281 281 281 281 281 281 280 280 280 280 280 280 279 279
323 322 322 321 321 321 320 319 319 318 318 317 316 316 316 316 316 316 316 316 316 316 316 316 316 316 315 314 312 312 311 310 309 308 306 305 304 303 303 302 300 299 297 296 296 295 294 294 293 293 293 293 292 292 292 291 290 290 289 288 288 287 286 285 284 283 283 282 282 282 281 281 281 281 281 281 281 281 280 280 280 280 279 279 279 278